Regional Weather Roundup
Issued by NWS

Home | Current Version | Previous Version | Graphics & Text | Print | Product List | Glossary On
Versions: 1 2 3 4 5 6 7 8 9 10 11 12 13 14 15 16 17 18 19 20 21 22 23 24 25 26 27 28 29 30 31 32 33 34 35 36 37 38 39 40 41 42 43 44 45 46 47 48 49 50
000
ASUS43 KDMX 030707
RWRIA

WEATHER ROUNDUP FOR IOWA
NATIONAL WEATHER SERVICE DES MOINES IA
200 AM CDT SUN MAY 03 2015

NOTE: "FAIR" INDICATES FEW OR NO CLOUDS BELOW 12,000 FEET WITH NO
SIGNIFICANT WEATHER AND/OR OBSTRUCTIONS TO VISIBILITY.

* - THESE STATIONS ARE NOT NWS STATIONS...THUS NOT UNDER NWS
QUALITY CONTROL.  THEY ALSO DO NOT REPORT WEATHER SUCH
AS PRECIPITATION OR FOG.

IAZ001>003-012>014-020>022-031>034-043>046-030800-
   NORTHWEST IOWA

CITY           SKY/WX    TMP DP  RH WIND       PRES   REMARKS
CARROLL *      CLEAR     63  54  72 S20G28    29.75S
CHEROKEE *     CLOUDY    57  54  88 CALM      29.73F
DENISON *      CLEAR     64  55  72 SW8       29.73S
LE MARS *      CLEAR     61  55  82 SE8G14    29.72S
ORANGE CITY *  CLEAR     55  52  88 SE5       29.73S
SHELDON *      CLEAR     59  55  88 SE10      29.72S
SIOUX CITY     CLOUDY    63  53  70 E6        29.70F
SPENCER        CLOUDY    58  52  80 SE10      29.75F
STORM LAKE *   CLEAR     55  52  88 SE8       29.75F
$$

IAZ055>058-069>071-079>083-090>094-030800-
   SOUTHWEST IOWA

CITY           SKY/WX    TMP DP  RH WIND       PRES   REMARKS
ATLANTIC *     LGT RAIN  63  59  88 SW22G40   29.85R
AUDUBON *      CLEAR     64  55  72 SW37G48   29.74F
CLARINDA *     DRIZZLE   63  55  77 SW5G12    29.87R
COUNCIL BLFS * LGT RAIN  59  59 100 SE9       29.84F
CRESTON *      CLOUDY    61  54  77 S16G22    29.85S
HARLAN  *      CLOUDY    66  55  68 S28G62    29.84R
LAMONI         CLOUDY    59  52  77 S12       29.86F
RED OAK *      LGT RAIN  61  61 100 CALM      29.89F
SHENANDOAH *   MOCLDY    64  57  77 NE10      29.89F
$$

IAZ047>049-059>061-072>074-084-030800-
   CENTRAL IOWA

CITY           SKY/WX    TMP DP  RH WIND       PRES   REMARKS
AMES           CLOUDY    59  51  75 SE6       29.84R THUNDER
ANKENY *       MOCLDY    59  52  77 S7        29.83F
CHARITON *     PTCLDY    59  50  72 S13       29.86S
DES MOINES     CLOUDY    60  49  66 S8        29.84S
GRINNELL*      MOCLDY    57  50  77 SE15      29.88R
KNOXVILLE *    CLEAR     59  48  67 S8G14     29.85R
MARSHALLTOWN   MOCLDY    58  50  75 S14       29.86S
PELLA *        CLOUDY    55  52  89 SE9       29.88S
PERRY *          N/A     59  54  82 S12       29.81F
$$

IAZ004>006-015-016-023>025-035-036-030800-
   NORTH CENTRAL IOWA

CITY           SKY/WX    TMP DP  RH WIND       PRES   REMARKS
ALGONA *       PTCLDY    57  54  88 SE13      29.79S
CLARION *      MOCLDY    59  54  82 S15       29.80F
ESTHERVILLE    MOCLDY    57  52  83 S15       29.76S
FORT DODGE *   CLOUDY    59  52  77 S10G18    29.79F
MASON CITY     PTCLDY    54  49  83 SE9       29.83F
FOREST CITY *    N/A     54  48  82 SE10      29.81F
IOWA FALLS *   MOCLDY    57  50  77 S14       29.85F
$$

IAZ007>011-017>019-026>030-037>042-050>054-066-030800-
   NORTHEAST IOWA

CITY           SKY/WX    TMP DP  RH WIND       PRES   REMARKS
CEDAR RAPIDS     N/A    N/A N/A N/A MISG        N/A
CHARLES CITY * PTCLDY    59  52  77 S14       29.85F
CLINTON *        N/A     61  48  63 S9        29.96F
DECORAH *      CLOUDY    59  52  77 S9G15     29.86F
DUBUQUE        MOCLDY    56  51  84 S8        29.92F
MONTICELLO *   CLOUDY    59  52  77 SE7       29.91S
OELWEIN *      MOCLDY    59  52  77 SE12      29.88F
WATERLOO       PTCLDY    58  51  78 S10       29.86S
$$

IAZ064-065-067-068-078-030800-
   EAST CENTRAL IOWA

CITY           SKY/WX    TMP DP  RH WIND       PRES   REMARKS
DAVENPORT      CLOUDY    62  46  55 S3        29.94F
IOWA CITY      PTCLDY    55  51  86 CALM      29.93F
MT. PLEASANT * PTCLDY    55  48  79 SE8       29.92F
MUSCATINE *    MOCLDY    57  50  77 CALM      29.93S
QUAD CITIES    CLOUDY    59  47  64 E3        29.93F
$$

IAZ062-063-075>077-085>089-095>099-030800-
   SOUTHEAST IOWA

CITY           SKY/WX    TMP DP  RH WIND       PRES   REMARKS
BURLINGTON     PTCLDY    59  47  64 SE6       29.93F
FAIRFIELD *    CLOUDY    55  50  82 SE13      29.91S
FORT MADISON * CLEAR     57  48  72 SE9       29.93F
KEOKUK *       CLEAR     59  50  72 SE9       29.91F
OSKALOOSA *      N/A     54  50  86 SE9       29.90R
CENTERVILLE *    N/A     55  54  94 S9        29.91R
OTTUMWA        MOCLDY    56  49  77 SE8       29.89S
WASHINGTON *   LGT RAIN  57  57 100 S13       29.94F
$$

ABBREVIATIONS USED IN REMARKS
   TC - TEMPERATURES IN CELSIUS
  WCI - WIND CHILL INDEX
   HX - HEAT INDEX
  VSB - VISIBILITY
$$




USA.gov is the U.S. government's official web portal to all federal, state and local government web resources and services.